Weather History for YBCS - January, 2013

Change the Weather History Date:

Friday, January 18, 2013

  Actual Average Record
Temperature  
Mean Temperature 79 °F -  
Max Temperature 87 °F 88 °F - ()
Min Temperature 71 °F 74 °F - ()
Cooling Degree Days 14    
Growing Degree Days 29 (Base 50)    
Moisture  
Dew Point 71 °F    
Average Humidity 74    
Maximum Humidity 94    
Minimum Humidity 51    
Precipitation  
Precipitation 0.16 in 0.54 in - ()
Sea Level Pressure  
Sea Level Pressure 29.76 in    
Wind  
Wind Speed 4 mph ()    
Max Wind Speed 10 mph    
Max Gust Speed -    
Visibility 7.2 miles    
Events Rain    
T = Trace of Precipitation, MM = Missing Value Source: Averaged Metar Reports

Daily Weather History Graph

Daily Weather History Graph

Search for Another Location

Airport or City:

Trip Planner

Search our weather history database for the weather conditions in past years. The results will help you decide how hot, cold, wet, or windy it might be!

Date:

Astronomy

Jan. 18, 2013 Rise Set
Actual Time 5:57 AM AEST 6:57 PM AEST
Civil Twilight 5:33 AM AEST 7:20 PM AEST
Nautical Twilight 5:06 AM AEST 7:48 PM AEST
Astronomical Twilight 4:38 AM AEST 8:16 PM AEST
Moon 11:39 AM AEST (1/18) 11:34 PM AEST (1/18)
Length of Visible Light 13h 46m
Length of Day
12h 59m
Waxing Crescent, 41% of the Moon is Illuminated
Jan 18
Waxing Crescent
Jan 19
First Quarter
Jan 27
Full
Feb 3
Last Quarter
Feb 10
New

Hourly Weather History & Observations

Time (AEST) Temp. Heat Index Dew Point Humidity Pressure Visibility Wind Dir Wind Speed Gust Speed Precip Events Conditions
12:00 AM 74 °F - 70 °F 85% 29.79 in - Calm Calm - -  
12:00 AM 75.2 °F - 69.8 °F 83% 29.77 in 6.2 mi Calm Calm - N/A   Mostly Cloudy
12:30 AM 73.4 °F - 71.6 °F 94% 29.77 in 6.2 mi Calm Calm - N/A   Mostly Cloudy
1:00 AM 73 °F - 71 °F 89% 29.77 in - West 4.6 mph - -  
1:00 AM 73.4 °F - 69.8 °F 88% 29.74 in 6.2 mi West 4.6 mph - N/A   Mostly Cloudy
1:30 AM 71.6 °F - 69.8 °F 94% 29.74 in 6.2 mi Calm Calm - N/A   Mostly Cloudy
2:00 AM 71.6 °F - 69.8 °F 94% 29.74 in 6.2 mi Calm Calm - N/A   Mostly Cloudy
2:30 AM 71.6 °F - 69.8 °F 94% 29.74 in 6.2 mi Calm Calm - N/A   Mostly Cloudy
3:00 AM 73 °F - 71 °F 89% 29.73 in - South 1.2 mph - -  
3:00 AM 73.4 °F - 69.8 °F 88% 29.71 in 6.2 mi South 1.2 mph - N/A   Mostly Cloudy
3:30 AM 75.2 °F - 69.8 °F 83% 29.71 in 6.2 mi Calm Calm - N/A   Mostly Cloudy
4:00 AM 76 °F - 69 °F 75% 29.74 in - WSW 2.3 mph - -  
4:00 AM 75.2 °F - 69.8 °F 83% 29.74 in 6.2 mi WSW 2.3 mph - N/A   Mostly Cloudy
4:30 AM 75.2 °F - 69.8 °F 83% 29.74 in 6.2 mi South 4.6 mph - N/A   Mostly Cloudy
5:00 AM 73.4 °F - 71.6 °F 94% 29.74 in 6.2 mi West 3.5 mph - N/A   Mostly Cloudy
5:30 AM 73.4 °F - 71.6 °F 94% 29.74 in 6.2 mi Calm Calm - N/A   Mostly Cloudy
6:00 AM 74 °F - 71 °F 87% 29.77 in 19 mi Calm Calm - -   Partly Cloudy
6:00 AM 73.4 °F - 71.6 °F 94% 29.77 in 6.2 mi Calm Calm - N/A   Scattered Clouds
6:30 AM 75.2 °F - 71.6 °F 89% 29.77 in 6.2 mi West 3.5 mph - N/A   Mostly Cloudy
7:00 AM 76 °F - 72 °F 84% 29.81 in - NW 4.6 mph - -  
7:00 AM 77.0 °F - 71.6 °F 83% 29.80 in 6.2 mi NW 4.6 mph - N/A Rain Light Rain Showers
7:30 AM 78.8 °F - 73.4 °F 83% 29.80 in 6.2 mi Calm Calm - N/A   Mostly Cloudy
8:00 AM 80.6 °F 83.9 °F 69.8 °F 70% 29.80 in 6.2 mi ESE 2.3 mph - N/A   Mostly Cloudy
8:30 AM 82.4 °F 86.3 °F 69.8 °F 66% 29.83 in 6.2 mi West 3.5 mph - N/A   Mostly Cloudy
9:00 AM 84 °F - 70 °F 54% 29.83 in 19 mi ESE 4.6 mph - -   Partly Cloudy
9:00 AM 84.2 °F 88.4 °F 69.8 °F 62% 29.83 in 6.2 mi ESE 4.6 mph - N/A   Mostly Cloudy
9:30 AM 86.0 °F 90.4 °F 69.8 °F 58% 29.83 in 6.2 mi East 6.9 mph - N/A   Mostly Cloudy
10:00 AM 82 °F - 73 °F 68% 29.83 in - North 9.2 mph - -  
10:00 AM 82.4 °F 88.2 °F 73.4 °F 74% 29.80 in 6.2 mi North 9.2 mph - N/A   Mostly Cloudy
10:30 AM 84.2 °F 89.6 °F 71.6 °F 66% 29.80 in 6.2 mi NNE 5.8 mph - N/A   Mostly Cloudy
11:00 AM 86.0 °F 91.8 °F 71.6 °F 62% 29.80 in 6.2 mi NNE 6.9 mph - N/A   Mostly Cloudy
12:00 PM 84 °F - 70 °F 55% 29.78 in 19 mi East 5.8 mph - -   Partly Cloudy
12:00 PM 84.2 °F 88.4 °F 69.8 °F 62% 29.77 in 6.2 mi East 5.8 mph - N/A   Mostly Cloudy
12:30 PM 86.0 °F 91.8 °F 71.6 °F 62% 29.77 in 6.2 mi NE 8.1 mph - N/A   Mostly Cloudy
1:00 PM 87 °F - 72 °F 51% 29.76 in - ENE 8.1 mph - -  
1:00 PM 86.0 °F 91.8 °F 71.6 °F 62% 29.74 in 6.2 mi ENE 8.1 mph - N/A   Mostly Cloudy
1:30 PM 84.2 °F 89.6 °F 71.6 °F 66% 29.74 in 6.2 mi ENE 9.2 mph - N/A   Mostly Cloudy
2:00 PM 86.0 °F 91.8 °F 71.6 °F 62% 29.71 in 6.2 mi NE 9.2 mph - N/A   Mostly Cloudy
2:30 PM 86.0 °F 91.8 °F 71.6 °F 62% 29.71 in 6.2 mi NE 10.4 mph - N/A   Mostly Cloudy
3:00 PM 85 °F - 71 °F 54% 29.72 in 19 mi NE 10.4 mph - -   Partly Cloudy
3:00 PM 86.0 °F 91.8 °F 71.6 °F 62% 29.71 in 6.2 mi NE 10.4 mph - N/A   Mostly Cloudy
3:30 PM 86.0 °F 91.8 °F 71.6 °F 62% 29.71 in 6.2 mi ENE 9.2 mph - N/A   Mostly Cloudy
4:00 PM 85 °F - 71 °F 55% 29.71 in - NE 9.2 mph - -  
4:00 PM 86.0 °F 91.8 °F 71.6 °F 62% 29.71 in 6.2 mi NE 9.2 mph - N/A   Mostly Cloudy
4:30 PM 84.2 °F 89.6 °F 71.6 °F 66% 29.71 in 6.2 mi NE 8.1 mph - N/A   Mostly Cloudy
5:00 PM 84.2 °F 89.6 °F 71.6 °F 66% 29.71 in 6.2 mi NE 6.9 mph - N/A   Mostly Cloudy
5:30 PM 84.2 °F 89.6 °F 71.6 °F 66% 29.71 in 6.2 mi NE 5.8 mph - N/A   Mostly Cloudy
6:00 PM 83 °F - 72 °F 62% 29.74 in - ENE 6.9 mph - -  
6:00 PM 82.4 °F 87.2 °F 71.6 °F 70% 29.74 in 6.2 mi ENE 6.9 mph - N/A   Overcast
6:30 PM 82.4 °F 87.2 °F 71.6 °F 70% 29.74 in 6.2 mi NE 5.8 mph - N/A   Overcast
7:00 PM 83 °F - 72 °F 62% 29.76 in - ENE 5.8 mph - -  
7:00 PM 82.4 °F 87.2 °F 71.6 °F 70% 29.74 in 6.2 mi ENE 5.8 mph - N/A   Overcast
7:30 PM 82.4 °F 88.2 °F 73.4 °F 74% 29.74 in 6.2 mi NE 2.3 mph - N/A   Overcast
8:00 PM 82.4 °F 88.2 °F 73.4 °F 74% 29.74 in 6.2 mi North 1.2 mph - N/A   Mostly Cloudy
8:30 PM 80.6 °F 85.4 °F 73.4 °F 79% 29.77 in 6.2 mi ENE 8.1 mph - N/A   Scattered Clouds
9:00 PM 82 °F - 73 °F 68% 29.78 in - NE 4.6 mph - -   Overcast
9:00 PM 82.4 °F 88.2 °F 73.4 °F 74% 29.77 in 6.2 mi NE 4.6 mph - N/A Rain Light Rain Showers
9:30 PM 80.6 °F 85.4 °F 73.4 °F 79% 29.77 in 6.2 mi NNE 6.9 mph - N/A   Mostly Cloudy
10:00 PM 80 °F - 73 °F 75% 29.80 in - East 10.4 mph - -  
10:00 PM 80.6 °F 85.4 °F 73.4 °F 79% 29.77 in 6.2 mi East 10.4 mph - N/A Rain Light Rain Showers
10:30 PM 78.8 °F - 73.4 °F 83% 29.77 in 6.2 mi SSE 6.9 mph - N/A   Scattered Clouds
11:30 PM 78.8 °F - 73.4 °F 83% 29.77 in 6.2 mi SE 6.9 mph - N/A   Mostly Cloudy